Total_Precipitation_Accumulation
0.54 0.49 0.61 0.73 0.67 0.71 0.93 0.96 0.87 0.56 0.50 0.58 0.58 0.56 0.53 0.50 0.47 0.50 0.63 0.66 0.66 0.70 0.72 0.76 0.86 0.94 0.93 0.99 1.07 1.21 1.39 1.53 1.58 1.60 1.71 1.81 1.85 1.89 1.85 1.93 1.98 1.94 1.96 1.98
0.53 0.35 0.43 0.54 0.47 0.50 0.54 0.55 0.59 0.49 0.55 0.57 0.55 0.50 0.50 0.51 0.50 0.52 0.62 0.67 0.69 0.71 0.75 0.79 0.85 0.92 0.91 0.91 1.00 1.13 1.30 1.39 1.46 1.59 1.71 1.88 1.94 2.02 2.02 2.02 2.05 2.03 1.98 1.97
0.88 0.44 0.65 0.82 0.58 0.51 0.52 0.51 0.54 0.61 0.64 0.58 0.55 0.53 0.53 0.53 0.53 0.54 0.54 0.58 0.65 0.73 0.78 0.80 0.83 0.85 0.90 0.90 0.91 1.01 1.18 1.29 1.36 1.52 1.61 1.72 1.80 1.84 1.90 1.86 1.83 1.88 1.92 1.83
1.24 0.92 1.27 0.76 0.47 0.44 0.47 0.52 0.53 0.57 0.59 0.58 0.63 0.62 0.57 0.56 0.58 0.58 0.55 0.55 0.57 0.69 0.76 0.74 0.77 0.83 0.85 0.85 0.86 0.95 1.07 1.18 1.21 1.35 1.49 1.55 1.61 1.65 1.68 1.64 1.66 1.77 1.75 1.62
1.59 1.21 0.76 0.42 0.35 0.49 0.57 0.64 0.56 0.53 0.51 0.50 0.53 0.56 0.59 0.58 0.56 0.59 0.57 0.55 0.57 0.65 0.70 0.70 0.75 0.80 0.79 0.80 0.81 0.89 0.98 1.05 1.07 1.15 1.33 1.37 1.45 1.54 1.53 1.55 1.57 1.58 1.56 1.48
1.71 1.33 0.74 0.43 0.28 0.34 0.51 0.74 0.52 0.47 0.51 0.53 0.54 0.74 0.72 0.65 0.62 0.61 0.57 0.55 0.59 0.64 0.64 0.66 0.72 0.73 0.72 0.73 0.77 0.84 0.91 0.98 0.99 1.01 1.13 1.16 1.21 1.30 1.34 1.36 1.44 1.49 1.49 1.43
1.41 1.13 0.56 0.36 0.28 0.32 0.77 0.91 0.50 0.47 0.53 0.58 0.69 0.81 0.74 0.68 0.66 0.62 0.62 0.60 0.59 0.61 0.64 0.68 0.72 0.73 0.73 0.72 0.75 0.79 0.82 0.87 0.91 0.97 1.04 1.05 1.09 1.14 1.22 1.28 1.35 1.41 1.45 1.40
1.06 1.17 0.67 0.35 0.36 0.63 0.79 0.49 0.44 0.46 0.49 0.55 0.56 0.54 0.56 0.59 0.60 0.58 0.60 0.60 0.60 0.62 0.67 0.68 0.69 0.68 0.66 0.73 0.73 0.74 0.80 0.85 0.90 0.95 0.97 0.99 1.03 1.11 1.13 1.23 1.37 1.39 1.36 1.36
0.80 0.75 0.55 0.44 0.52 0.56 0.46 0.41 0.38 0.42 0.45 0.48 0.50 0.50 0.54 0.55 0.56 0.56 0.57 0.58 0.58 0.62 0.67 0.67 0.67 0.65 0.65 0.71 0.72 0.73 0.77 0.82 0.89 0.95 0.96 1.01 1.03 1.10 1.16 1.25 1.38 1.39 1.32 1.30
0.53 0.44 0.38 0.38 0.38 0.39 0.38 0.39 0.37 0.39 0.44 0.45 0.49 0.50 0.52 0.52 0.53 0.54 0.53 0.53 0.52 0.57 0.63 0.65 0.68 0.68 0.69 0.71 0.72 0.75 0.78 0.79 0.84 0.94 1.01 1.02 1.05 1.09 1.12 1.19 1.34 1.39 1.35 1.32
0.47 0.34 0.30 0.29 0.30 0.34 0.37 0.35 0.34 0.35 0.39 0.41 0.42 0.44 0.46 0.50 0.51 0.52 0.52 0.51 0.50 0.53 0.59 0.65 0.67 0.68 0.70 0.75 0.79 0.81 0.78 0.78 0.81 0.91 0.98 1.01 1.05 1.09 1.13 1.13 1.34 1.51 1.42 1.41
0.45 0.31 0.35 0.32 0.28 0.29 0.33 0.33 0.31 0.33 0.36 0.34 0.35 0.41 0.42 0.45 0.47 0.49 0.50 0.50 0.49 0.49 0.55 0.61 0.64 0.68 0.73 0.81 0.85 0.85 0.83 0.83 0.85 0.92 0.94 0.96 1.00 1.08 1.18 1.20 1.28 1.28 1.32 1.39
0.34 0.28 0.29 0.27 0.23 0.23 0.28 0.29 0.28 0.30 0.35 0.37 0.34 0.37 0.42 0.44 0.45 0.45 0.45 0.47 0.50 0.52 0.54 0.58 0.61 0.65 0.73 0.84 0.87 0.86 0.88 0.90 0.92 0.93 0.94 0.97 0.94 0.97 1.09 1.13 1.16 1.18 1.21 1.27
0.26 0.25 0.26 0.20 0.20 0.19 0.21 0.24 0.24 0.25 0.27 0.32 0.36 0.36 0.40 0.42 0.41 0.42 0.43 0.45 0.46 0.49 0.53 0.54 0.56 0.62 0.71 0.84 0.90 0.91 0.92 0.98 1.01 0.98 0.96 0.97 0.94 0.91 0.96 1.08 1.21 1.26 1.29 1.33
0.21 0.22 0.23 0.19 0.16 0.15 0.17 0.19 0.21 0.23 0.24 0.28 0.32 0.36 0.40 0.43 0.42 0.41 0.41 0.41 0.40 0.43 0.48 0.51 0.55 0.62 0.70 0.81 0.89 0.95 1.01 1.02 1.04 1.04 1.02 0.98 0.96 0.96 0.97 1.01 1.12 1.26 1.36 1.45
0.24 0.20 0.18 0.17 0.16 0.16 0.17 0.20 0.24 0.26 0.27 0.30 0.31 0.34 0.40 0.44 0.45 0.42 0.41 0.41 0.43 0.45 0.48 0.53 0.57 0.64 0.72 0.80 0.89 0.99 1.08 1.16 1.15 1.10 1.09 1.05 1.03 1.04 1.05 1.08 1.12 1.19 1.30 1.39
0.31 0.26 0.22 0.20 0.18 0.18 0.20 0.24 0.28 0.29 0.29 0.31 0.33 0.35 0.38 0.41 0.42 0.42 0.42 0.43 0.46 0.49 0.50 0.54 0.61 0.66 0.71 0.79 0.90 1.03 1.12 1.16 1.19 1.14 1.12 1.11 1.12 1.12 1.14 1.17 1.20 1.19 1.21 1.31
0.29 0.29 0.27 0.27 0.26 0.24 0.22 0.22 0.25 0.27 0.30 0.33 0.34 0.35 0.37 0.41 0.46 0.48 0.47 0.45 0.44 0.44 0.48 0.54 0.64 0.68 0.71 0.79 0.91 1.01 1.09 1.12 1.09 1.10 1.14 1.18 1.22 1.20 1.21 1.21 1.20 1.22 1.24 1.30
0.23 0.24 0.23 0.22 0.23 0.24 0.24 0.24 0.25 0.26 0.28 0.31 0.33 0.35 0.39 0.45 0.50 0.53 0.51 0.48 0.46 0.48 0.54 0.60 0.68 0.67 0.73 0.85 0.95 1.01 1.08 1.11 1.10 1.10 1.14 1.22 1.22 1.15 1.17 1.19 1.23 1.24 1.23 1.26
0.21 0.22 0.23 0.21 0.21 0.24 0.25 0.25 0.25 0.25 0.27 0.30 0.32 0.34 0.37 0.43 0.49 0.53 0.51 0.50 0.54 0.60 0.62 0.66 0.65 0.66 0.75 0.89 1.01 1.03 1.06 1.07 1.08 1.12 1.15 1.16 1.16 1.17 1.16 1.16 1.23 1.30 1.29 1.27
0.23 0.24 0.24 0.24 0.23 0.22 0.24 0.26 0.27 0.28 0.30 0.33 0.38 0.42 0.44 0.47 0.51 0.54 0.53 0.53 0.55 0.58 0.61 0.64 0.66 0.75 0.86 0.99 1.03 0.99 1.02 1.05 1.08 1.15 1.19 1.19 1.20 1.19 1.18 1.18 1.23 1.29 1.29 1.27
0.26 0.28 0.28 0.27 0.27 0.26 0.27 0.29 0.31 0.32 0.34 0.36 0.40 0.45 0.47 0.50 0.53 0.53 0.54 0.60 0.64 0.68 0.63 0.60 0.69 0.85 1.00 1.02 0.95 0.94 0.96 1.01 1.08 1.16 1.22 1.22 1.22 1.22 1.19 1.19 1.25 1.25 1.23 1.22
0.31 0.32 0.34 0.35 0.37 0.37 0.35 0.36 0.38 0.39 0.42 0.44 0.47 0.51 0.53 0.56 0.58 0.60 0.61 0.61 0.64 0.68 0.65 0.66 0.75 0.88 0.96 0.91 0.87 0.89 0.92 0.97 1.05 1.16 1.22 1.25 1.27 1.25 1.24 1.23 1.26 1.27 1.27 1.23
0.34 0.36 0.39 0.41 0.41 0.39 0.39 0.40 0.42 0.45 0.48 0.51 0.54 0.57 0.58 0.57 0.56 0.58 0.62 0.64 0.66 0.67 0.67 0.71 0.77 0.85 0.88 0.83 0.82 0.87 0.93 0.99 1.08 1.18 1.23 1.26 1.27 1.26 1.27 1.30 1.35 1.31 1.25 1.20
0.38 0.39 0.40 0.41 0.43 0.44 0.44 0.42 0.40 0.42 0.44 0.47 0.50 0.52 0.54 0.59 0.66 0.66 0.62 0.62 0.65 0.66 0.66 0.71 0.76 0.81 0.80 0.79 0.81 0.89 0.96 1.07 1.23 1.35 1.36 1.33 1.28 1.27 1.27 1.31 1.36 1.33 1.27 1.21
0.46 0.47 0.48 0.49 0.51 0.52 0.51 0.48 0.48 0.48 0.49 0.49 0.48 0.49 0.53 0.58 0.65 0.67 0.65 0.63 0.64 0.68 0.70 0.73 0.76 0.78 0.78 0.80 0.85 0.91 0.99 1.08 1.22 1.30 1.28 1.26 1.25 1.27 1.27 1.30 1.30 1.29 1.25 1.21
0.50 0.49 0.48 0.50 0.51 0.53 0.57 0.59 0.60 0.61 0.62 0.62 0.59 0.56 0.57 0.61 0.65 0.66 0.63 0.63 0.64 0.67 0.71 0.76 0.79 0.79 0.80 0.84 0.90 0.95 0.99 1.04 1.18 1.30 1.30 1.27 1.28 1.29 1.27 1.26 1.27 1.27 1.25 1.22